Simultaneous Nadir Overpasses (SNOs) Predictions

Prediction of SNOs between LANDSAT-8 and NPP Satellite Orbit:

Table of predicted SNOs for the next 14.0 days since TLE Epoch: 7/12/2014
Index Date (LANDSAT-8) Time (LANDSAT-8) Lat,Lon (LANDSAT-8) SZA (LANDSAT-8 ) Date (NPP) Time (NPP) Lat,Lon (NPP) SZA (NPP ) Distance(km) Time Diff (sec)
1 07/14/2014 09:44:56 70.71, 31.05 49.01 07/14/2014 09:43:50 70.69, 31.01 49.00 2.30 66
2 07/14/2014 10:34:26 -70.60,-161.48 131.10 07/14/2014 10:34:32 -70.59,-161.52 131.10 1.37 6
3 07/14/2014 11:23:59 70.16, 5.52 48.50 07/14/2014 11:25:10 70.16, 6.47 48.46 35.83 71
4 07/17/2014 02:01:26 70.67, 146.87 49.40 07/17/2014 02:00:49 70.64, 146.85 49.38 2.94 37
5 07/17/2014 02:50:56 -70.56, -45.65 130.70 07/17/2014 02:51:31 -70.54, -45.67 130.72 2.05 35
6 07/19/2014 17:28:23 -71.05, 95.69 129.77 07/19/2014 17:27:12 -71.12, 94.50 129.65 43.80 71
7 07/19/2014 18:17:56 70.61, -97.33 49.82 07/19/2014 18:17:48 70.60, -97.31 49.81 1.55 8
8 07/19/2014 19:07:26 -70.51, 70.15 130.28 07/19/2014 19:08:30 -70.50, 70.17 130.29 1.33 64
9 07/22/2014 09:44:59 -70.65,-149.03 129.64 07/22/2014 09:44:03 -70.67,-148.96 129.61 3.53 56
10 07/22/2014 10:34:25 70.59, 18.53 50.32 07/22/2014 10:34:47 70.56, 18.52 50.29 3.28 22
11 07/22/2014 11:24:09 -69.72,-175.09 130.50 07/22/2014 11:25:15 -69.72,-172.86 130.58 86.01 66
12 07/25/2014 01:11:42 71.53, 160.62 51.76 07/25/2014 01:10:36 71.63, 157.84 51.95 98.18 66
13 07/25/2014 02:01:26 -70.67, -33.12
